This is the latest recevied weather packets stored in our database for station/object KD7CIH. If no packets are shown the sender has not sent any weather packets the latest 10 day(s).
| Time | Temp. | Humidity | Pressure | Rain* | Wind** | Luminosity | Snow |
|---|---|---|---|---|---|---|---|
| 1777923734 | 19.44° C | 17% | 1003.8 hPa | 0 mm | - | - | - |
| 1777923331 | 19.44° C | 17% | 1003.7 hPa | 0 mm | - | - | - |
| 1777923030 | 18.89° C | 18% | 1004 hPa | 0 mm | - | - | - |
| 1777922731 | 18.89° C | 18% | 1004 hPa | 0 mm | - | - | - |
| 1777922430 | 18.33° C | 18% | 1004.1 hPa | 0 mm | - | - | - |
| 1777922130 | 18.33° C | 18% | 1004.2 hPa | 0 mm | - | - | - |
| 1777921936 | 18.33° C | 17% | 1004.2 hPa | 0 mm | - | - | - |
| 1777921534 | 18.89° C | 18% | 1004.2 hPa | 0 mm | - | - | - |
| 1777921231 | 18.89° C | 18% | 1004.4 hPa | 0 mm | - | - | - |
| 1777920932 | 19.44° C | 18% | 1004.4 hPa | 0 mm | - | - | - |
| 1777920630 | 18.89° C | 18% | 1004.4 hPa | 0 mm | - | - | - |
| 1777920330 | 18.89° C | 20% | 1004.7 hPa | 0 mm | - | - | - |
| 1777920137 | 18.33° C | 19% | 1004.8 hPa | 0 mm | - | - | - |
| 1777919835 | 18.33° C | 19% | 1004.8 hPa | 0 mm | - | - | - |
| 1777919431 | 18.33° C | 20% | 1004.8 hPa | 0 mm | - | - | - |
| 1777919235 | 17.78° C | 19% | 1004.9 hPa | 0 mm | - | - | - |
| 1777918831 | 18.33° C | 19% | 1005 hPa | 0 mm | - | - | - |
| 1777918530 | 18.33° C | 19% | 1005 hPa | 0 mm | - | - | - |
| 1777918230 | 18.33° C | 20% | 1005 hPa | 0 mm | - | - | - |
| 1777918036 | 18.33° C | 20% | 1005.2 hPa | 0 mm | - | - | - |
| 1777917695 | 17.78° C | 21% | 1005.3 hPa | 0 mm | - | - | - |
| 1777917331 | 17.78° C | 20% | 1005.3 hPa | 0 mm | - | - | - |
| 1777917030 | 17.78° C | 21% | 1005.4 hPa | 0 mm | - | - | - |
| 1777916729 | 17.78° C | 21% | 1005.4 hPa | 0 mm | - | - | - |
| 1777916430 | 17.78° C | 21% | 1005.5 hPa | 0 mm | - | - | - |
* Rain latest hour (hover to see other rain measurements)
** Current wind speed in m/s (hover to see current wind gust speed)